This demonstration page uses our WeatherBlox Daily Observations layout. Learn more.

Left ArrowRight Arrow

38.89511, -77.03637

Hourly Observations for November 26, 2015

Temp ( °F °C ) Dew Point ( °F °C ) Humidity (%) Winds ( mph kmh ) Pressure ( in mb ) Visibility ( mi km ) Precip ( " mm )
12:52 am 00:52 Clear 44 6.7 39 3.9 83 83 NE 3 6 30.77 1042 10 16 N/A
1:52 am 01:52 Clear 42 5.6 37 2.8 82 82 NE 5 7 30.77 1042 10 16 N/A
2:52 am 02:52 Clear 42 5.6 37 2.8 82 82 ENE 5 7 30.76 1042 10 16 N/A
3:52 am 03:52 Clear 41 5 37 2.8 86 86 N N/A 30.76 1042 10 16 N/A
4:52 am 04:52 Cloudy 42 5.6 38 3.3 85 85 NE 7 11 30.77 1042 10 16 N/A
5:52 am 05:52 Mostly Clear 42 5.6 38 3.3 85 85 N N/A 30.79 1043 10 16 N/A
6:28 am 06:28 Mostly Cloudy 43 6 37 3 81 81 N 6 9 30.80 1043 10 16 N/A
6:52 am 06:52 Mostly Cloudy 42 5.6 39 3.9 89 89 NNE 5 7 30.79 1043 10 16 N/A
7:30 am 07:30 Mostly Cloudy 43 6 37 3 81 81 N N/A 30.80 1043 10 16 N/A
7:52 am 07:52 Mostly Cloudy 44 6.7 39 3.9 83 83 N 3 6 30.80 1043 10 16 N/A
8:52 am 08:52 Mostly Cloudy 46 7.8 40 4.4 79 79 NE 3 6 30.80 1043 8 13 N/A
9:52 am 09:52 Mostly Cloudy 51 10.6 42 5.6 71 71 N N/A 30.80 1043 9 14 N/A
10:52 am 10:52 Partly Cloudy 52 11.1 44 6.7 75 75 SSE 5 7 30.79 1043 9 14 N/A
11:52 am 11:52 Partly Cloudy 56 13.3 45 7.2 67 67 SSE 5 7 30.77 1042 10 16 N/A
12:52 pm 12:52 Partly Cloudy 60 15.6 45 7.2 58 58 S 6 9 30.73 1041 10 16 N/A
1:52 pm 13:52 Mostly Cloudy 62 16.7 45 7.2 54 54 N N/A 30.71 1040 10 16 N/A
2:52 pm 14:52 Partly Cloudy 62 16.7 45 7.2 54 54 S 3 6 30.68 1039 10 16 N/A
3:52 pm 15:52 Mostly Cloudy 61 16.1 46 7.8 58 58 SSW 5 7 30.68 1039 10 16 N/A
4:52 pm 16:52 Mostly Cloudy 59 15 45 7.2 60 60 SSW 3 6 30.67 1039 10 16 N/A
5:52 pm 17:52 Mostly Cloudy 54 12.2 45 7.2 72 72 ESE 3 6 30.66 1038 10 16 N/A
6:52 pm 18:52 Mostly Cloudy 54 12.2 45 7.2 72 72 N N/A 30.67 1039 10 16 N/A
7:52 pm 19:52 Mostly Cloudy 53 11.7 45 7.2 74 74 N N/A 30.66 1038 10 16 N/A
8:52 pm 20:52 Mostly Cloudy 49 9.4 45 7.2 86 86 N N/A 30.66 1038 10 16 N/A
9:52 pm 21:52 Mostly Cloudy 48 8.9 45 7.2 89 89 N N/A 30.65 1038 10 16 N/A
10:52 pm 22:52 Partly Cloudy 48 8.9 45 7.2 89 89 N N/A 30.65 1038 10 16 N/A
11:52 pm 23:52 Clear 48 8.9 44 6.7 86 86 N N/A 30.64 1038 10 16 N/A

Powered by AerisWeather